• In Uzbekistan
  • List of Countries
  • For 7 days
  • Water Temperature
  • Satellite Maps
  • Weather Map
  • Weather Widgets
  • user-avatar
    Login

    Hourly Weather Stepanakert

    Today, 19 November, Sunday

    Time Temperature Precipitation Wind Pressure Humidity
    00:00 +9°C° 0 mm 1 mps 695 mmHg 67%
    01:00 +9°C° 0 mm 1 mps 695 mmHg 66%
    02:00 +9°C° 0 mm 1 mps 695 mmHg 64%
    03:00 +8°C° 0 mm 1 mps 695 mmHg 62%
    04:00 +8°C° 0 mm 1 mps 695 mmHg 61%
    05:00 +8°C° 0 mm 1 mps 694 mmHg 59%
    06:00 +8°C° 0 mm 1 mps 694 mmHg 58%
    07:00 +10°C° 0 mm 1 mps 694 mmHg 54%
    08:00 +11°C° 0 mm 1 mps 695 mmHg 50%
    09:00 +13°C° 0 mm 1 mps 695 mmHg 46%
    10:00 +14°C° 0 mm 1 mps 695 mmHg 43%
    11:00 +15°C° 0 mm 1 mps 694 mmHg 40%
    12:00 +16°C° 0 mm 2 mps 694 mmHg 37%
    13:00 +16°C° 0 mm 2 mps 694 mmHg 38%
    14:00 +16°C° 0 mm 2 mps 693 mmHg 40%
    15:00 +16°C° 0 mm 1 mps 693 mmHg 41%
    16:00 +14°C° 0 mm 1 mps 693 mmHg 45%
    17:00 +13°C° 0 mm 1 mps 692 mmHg 50%
    18:00 +12°C° 0 mm 1 mps 692 mmHg 55%
    19:00 +12°C° 0 mm 1 mps 692 mmHg 53%
    20:00 +12°C° 0 mm 1 mps 692 mmHg 52%
    21:00 +12°C° 0 mm 1 mps 692 mmHg 50%
    22:00 +11°C° 0 mm 1 mps 692 mmHg 50%
    23:00 +11°C° 0 mm 1 mps 692 mmHg 49%

    Tomorrow, 20 November, Monday

    Time Temperature Precipitation Wind Pressure Humidity
    00:00 +11°C° 0 mm 1 mps 692 mmHg 49%
    01:00 +11°C° 0 mm 1 mps 692 mmHg 49%
    02:00 +11°C° 0 mm 1 mps 692 mmHg 49%
    03:00 +11°C° 0 mm 1 mps 692 mmHg 49%
    04:00 +10°C° 0 mm 2 mps 692 mmHg 49%
    05:00 +10°C° 0 mm 2 mps 692 mmHg 50%
    06:00 +9°C° 0 mm 2 mps 691 mmHg 50%
    07:00 +12°C° 0 mm 2 mps 692 mmHg 47%
    08:00 +13°C° 0 mm 2 mps 692 mmHg 44%
    09:00 +15°C° 0 mm 1 mps 693 mmHg 42%
    10:00 +16°C° 0 mm 2 mps 692 mmHg 38%
    11:00 +17°C° 0 mm 2 mps 692 mmHg 35%
    12:00 +18°C° 0 mm 2 mps 692 mmHg 31%
    13:00 +18°C° 0 mm 2 mps 692 mmHg 32%
    14:00 +18°C° 0 mm 2 mps 691 mmHg 33%
    15:00 +17°C° 0 mm 2 mps 691 mmHg 34%
    16:00 +16°C° 0 mm 2 mps 691 mmHg 38%
    17:00 +14°C° 0 mm 1 mps 690 mmHg 42%
    18:00 +13°C° 0 mm 1 mps 690 mmHg 47%
    19:00 +13°C° 0 mm 1 mps 690 mmHg 47%
    20:00 +12°C° 0 mm 1 mps 690 mmHg 47%
    21:00 +12°C° 0 mm 2 mps 690 mmHg 47%
    22:00 +12°C° 0 mm 2 mps 690 mmHg 47%
    23:00 +12°C° 0 mm 2 mps 689 mmHg 48%

    Day after tomorrow, 21 November, Tuesday

    Time Temperature Precipitation Wind Pressure Humidity
    00:00 +12°C° 0 mm 2 mps 689 mmHg 48%
    01:00 +12°C° 0 mm 2 mps 689 mmHg 48%
    02:00 +10°C° 0 mm 2 mps 689 mmHg 49%
    03:00 +10°C° 0 mm 2 mps 689 mmHg 49%
    04:00 +10°C° 0 mm 2 mps 688 mmHg 49%
    05:00 +10°C° 0 mm 2 mps 688 mmHg 50%
    06:00 +10°C° 0 mm 2 mps 688 mmHg 50%
    07:00 +12°C° 0 mm 1 mps 688 mmHg 48%
    08:00 +13°C° 0 mm 1 mps 688 mmHg 45%
    09:00 +14°C° 0 mm 1 mps 688 mmHg 42%
    10:00 +15°C° 0 mm 1 mps 688 mmHg 40%
    11:00 +16°C° 0 mm 2 mps 688 mmHg 38%
    12:00 +17°C° 0 mm 2 mps 687 mmHg 36%
    13:00 +16°C° 0.1 mm 2 mps 687 mmHg 39%
    14:00 +16°C° 0.1 mm 2 mps 686 mmHg 42%
    15:00 +16°C° 0.1 mm 1 mps 686 mmHg 45%
    16:00 +14°C° 0 mm 1 mps 686 mmHg 48%
    17:00 +13°C° 0 mm 1 mps 686 mmHg 52%
    18:00 +12°C° 0 mm 1 mps 685 mmHg 55%
    19:00 +12°C° 0 mm 1 mps 686 mmHg 56%
    20:00 +12°C° 0 mm 1 mps 686 mmHg 56%
    21:00 +12°C° 0 mm 1 mps 686 mmHg 56%
    22:00 +10°C° 0 mm 2 mps 685 mmHg 55%
    23:00 +10°C° 0 mm 2 mps 685 mmHg 55%

    22 November, Wednesday

    Time Temperature Precipitation Wind Pressure Humidity
    00:00 +10°C° 0 mm 2 mps 685 mmHg 54%
    01:00 +10°C° 0 mm 2 mps 685 mmHg 54%
    02:00 +10°C° 0 mm 2 mps 684 mmHg 53%
    03:00 +11°C° 0 mm 1 mps 684 mmHg 52%
    04:00 +11°C° 0 mm 1 mps 684 mmHg 52%
    05:00 +11°C° 0 mm 1 mps 684 mmHg 52%
    06:00 +10°C° 0 mm 1 mps 684 mmHg 51%
    07:00 +11°C° 0 mm 1 mps 684 mmHg 51%
    08:00 +12°C° 0 mm 1 mps 684 mmHg 50%
    09:00 +13°C° 0 mm 1 mps 685 mmHg 49%
    10:00 +13°C° 0 mm 2 mps 685 mmHg 48%
    11:00 +13°C° 0 mm 3 mps 685 mmHg 47%
    12:00 +13°C° 0 mm 3 mps 685 mmHg 45%
    13:00 +12°C° 0.2 mm 3 mps 685 mmHg 49%
    14:00 +12°C° 0.2 mm 4 mps 685 mmHg 52%
    15:00 +11°C° 0.2 mm 4 mps 685 mmHg 56%
    16:00 +10°C° 0.2 mm 3 mps 686 mmHg 61%
    17:00 +9°C° 0.2 mm 3 mps 686 mmHg 66%
    18:00 +7°C° 0.2 mm 3 mps 686 mmHg 72%
    19:00 +7°C° 0.3 mm 2 mps 687 mmHg 72%
    20:00 +7°C° 0.3 mm 2 mps 687 mmHg 73%
    21:00 +7°C° 0.3 mm 2 mps 687 mmHg 74%
    22:00 +6°C° 0.1 mm 2 mps 687 mmHg 74%
    23:00 +6°C° 0.1 mm 2 mps 687 mmHg 75%

    23 November, Thursday

    Time Temperature Precipitation Wind Pressure Humidity
    00:00 +6°C° 0.1 mm 2 mps 688 mmHg 75%
    01:00 +5°C° 0 mm 2 mps 688 mmHg 75%
    02:00 +6°C° 0 mm 1 mps 688 mmHg 74%
    03:00 +6°C° 0 mm 1 mps 688 mmHg 73%
    04:00 +5°C° 0 mm 1 mps 688 mmHg 73%
    05:00 +5°C° 0 mm 1 mps 689 mmHg 73%
    06:00 +5°C° 0 mm 1 mps 689 mmHg 74%
    07:00 +6°C° 0 mm 1 mps 690 mmHg 69%
    08:00 +6°C° 0 mm 2 mps 690 mmHg 65%
    09:00 +7°C° 0 mm 2 mps 691 mmHg 61%
    10:00 +7°C° 0 mm 2 mps 691 mmHg 57%
    11:00 +8°C° 0 mm 3 mps 691 mmHg 53%
    12:00 +9°C° 0 mm 3 mps 691 mmHg 49%
    13:00 +9°C° 0 mm 3 mps 691 mmHg 50%
    14:00 +8°C° 0 mm 3 mps 691 mmHg 50%
    15:00 +8°C° 0 mm 3 mps 691 mmHg 51%
    16:00 +7°C° 0.1 mm 2 mps 692 mmHg 55%
    17:00 +7°C° 0.1 mm 2 mps 692 mmHg 60%
    18:00 +7°C° 0.1 mm 1 mps 693 mmHg 64%
    19:00 +6°C° 0.4 mm 2 mps 693 mmHg 66%
    20:00 +5°C° 0.4 mm 2 mps 694 mmHg 68%
    21:00 +5°C° 0.4 mm 2 mps 694 mmHg 70%
    22:00 +4°C° 0.8 mm 2 mps 695 mmHg 73%
    23:00 +4°C° 0.8 mm 2 mps 695 mmHg 75%

    24 November, Friday

    Time Temperature Precipitation Wind Pressure Humidity
    00:00 +4°C° 0.8 mm 2 mps 695 mmHg 77%
    01:00 +3°C° 0.6 mm 2 mps 696 mmHg 78%
    02:00 +4°C° 0.6 mm 1 mps 696 mmHg 78%
    03:00 +4°C° 0.6 mm 1 mps 696 mmHg 79%
    04:00 +3°C° 0.2 mm 1 mps 697 mmHg 79%
    05:00 +3°C° 0.2 mm 1 mps 697 mmHg 79%
    06:00 +3°C° 0.2 mm 1 mps 698 mmHg 78%
    07:00 +3°C° 0.1 mm 1 mps 698 mmHg 75%
    08:00 +4°C° 0.1 mm 1 mps 699 mmHg 71%
    09:00 +3°C° 0.1 mm 2 mps 699 mmHg 67%
    10:00 +4°C° 0 mm 2 mps 699 mmHg 65%
    11:00 +4°C° 0 mm 2 mps 699 mmHg 63%
    12:00 +5°C° 0 mm 2 mps 699 mmHg 61%
    13:00 +5°C° 0 mm 2 mps 699 mmHg 61%
    14:00 +5°C° 0 mm 2 mps 699 mmHg 61%
    15:00 +6°C° 0 mm 1 mps 699 mmHg 61%
    16:00 +5°C° 0 mm 1 mps 699 mmHg 64%
    17:00 +4°C° 0 mm 1 mps 699 mmHg 67%
    18:00 +3°C° 0 mm 1 mps 699 mmHg 70%
    19:00 +2°C° 0 mm 1 mps 700 mmHg 70%
    20:00 +2°C° 0 mm 1 mps 700 mmHg 69%
    21:00 +1°C° 0 mm 2 mps 700 mmHg 69%
    22:00 +1°C° 0 mm 2 mps 700 mmHg 67%
    23:00 +1°C° 0 mm 2 mps 700 mmHg 66%
    Show more